Time,TemperatureF,DewpointF,PressureIn,WindDirection,WindDirectionDegrees,WindSpeedMPH,WindSpeedGustMPH,Humidity,HourlyPrecipIn,Conditions,Clouds,dailyrainin,SoftwareType,DateUTC
2013-09-10 00:11:00,59.2,55.3,29.78,NE,45,0.0,-999.0,87,-99.99,,,0.00,Acu-Link.com,2013-09-10 07:11:00,
2013-09-10 00:26:00,59.9,55.4,29.78,NE,45,0.0,-999.0,85,-99.99,,,0.00,Acu-Link.com,2013-09-10 07:26:00,
2013-09-10 00:41:00,59.5,55.3,29.79,NNE,22,0.0,-999.0,86,-99.99,,,0.00,Acu-Link.com,2013-09-10 07:41:00,
2013-09-10 00:56:00,59.2,55.0,29.79,NE,45,0.0,-999.0,86,-99.99,,,0.00,Acu-Link.com,2013-09-10 07:56:00,
2013-09-10 01:12:00,58.5,55.3,29.79,NE,45,0.0,-999.0,89,-99.99,,,0.00,Acu-Link.com,2013-09-10 08:12:00,
2013-09-10 01:28:00,58.3,55.4,29.79,NE,45,0.0,-999.0,90,-99.99,,,0.00,Acu-Link.com,2013-09-10 08:28:00,
2013-09-10 01:43:00,57.9,55.0,29.79,ESE,112,0.0,-999.0,90,-99.99,,,0.00,Acu-Link.com,2013-09-10 08:43:00,
2013-09-10 01:58:00,58.1,54.9,29.79,NE,45,0.0,-999.0,89,-99.99,,,0.00,Acu-Link.com,2013-09-10 08:58:00,
2013-09-10 02:13:00,57.4,54.5,29.80,NW,315,0.0,-999.0,90,-99.99,,,0.00,Acu-Link.com,2013-09-10 09:13:00,
2013-09-10 02:28:00,57.2,54.6,29.80,NNE,22,0.0,-999.0,91,-99.99,,,0.00,Acu-Link.com,2013-09-10 09:28:00,
2013-09-10 02:43:00,56.7,54.4,29.81,NNE,22,0.0,-999.0,92,-99.99,,,0.00,Acu-Link.com,2013-09-10 09:43:00,
2013-09-10 02:59:00,56.7,54.7,29.81,SW,225,0.0,-999.0,93,-99.99,,,0.00,Acu-Link.com,2013-09-10 09:59:00,
2013-09-10 03:14:00,56.5,54.2,29.81,NE,45,0.0,-999.0,92,-99.99,,,0.00,Acu-Link.com,2013-09-10 10:14:00,
2013-09-10 03:29:00,56.5,54.5,29.82,NW,315,0.0,-999.0,93,-99.99,,,0.00,Acu-Link.com,2013-09-10 10:29:00,
2013-09-10 03:45:00,55.9,53.9,29.82,North,0,0.0,-999.0,93,-99.99,,,0.00,Acu-Link.com,2013-09-10 10:45:00,
2013-09-10 04:00:00,55.9,54.2,29.82,NNE,22,0.0,-999.0,94,-99.99,,,0.00,Acu-Link.com,2013-09-10 11:00:00,
2013-09-10 04:15:00,55.6,53.9,29.82,NE,45,0.0,-999.0,94,-99.99,,,0.00,Acu-Link.com,2013-09-10 11:15:00,
2013-09-10 04:30:00,55.4,53.7,29.83,NE,45,0.0,-999.0,94,-99.99,,,0.00,Acu-Link.com,2013-09-10 11:30:00,
2013-09-10 04:45:00,55.9,54.5,29.82,NNE,22,0.0,-999.0,95,-99.99,,,0.00,Acu-Link.com,2013-09-10 11:45:00,
2013-09-10 05:01:00,56.7,54.7,29.83,ENE,67,0.0,-999.0,93,-99.99,,,0.00,Acu-Link.com,2013-09-10 12:01:00,
2013-09-10 05:16:00,55.9,53.9,29.83,WNW,292,0.0,-999.0,93,-99.99,,,0.00,Acu-Link.com,2013-09-10 12:16:00,
2013-09-10 05:31:00,55.2,53.5,29.83,NE,45,0.0,-999.0,94,-99.99,,,0.00,Acu-Link.com,2013-09-10 12:31:00,
2013-09-10 05:46:00,55.0,53.6,29.84,North,0,0.0,-999.0,95,-99.99,,,0.00,Acu-Link.com,2013-09-10 12:46:00,
2013-09-10 06:02:00,54.9,53.8,29.84,North,0,0.0,-999.0,96,-99.99,,,0.00,Acu-Link.com,2013-09-10 13:02:00,
2013-09-10 06:17:00,54.3,53.2,29.84,SSW,202,0.0,-999.0,96,-99.99,,,0.00,Acu-Link.com,2013-09-10 13:17:00,
2013-09-10 06:32:00,54.1,53.0,29.84,NNE,22,0.0,-999.0,96,-99.99,,,0.00,Acu-Link.com,2013-09-10 13:32:00,
2013-09-10 06:47:00,54.5,53.7,29.85,WNW,292,0.0,-999.0,97,-99.99,,,0.00,Acu-Link.com,2013-09-10 13:47:00,
2013-09-10 07:03:00,56.1,55.3,29.85,NNE,22,0.0,-999.0,97,-99.99,,,0.00,Acu-Link.com,2013-09-10 14:03:00,
2013-09-10 07:18:00,60.8,56.6,29.86,East,90,0.0,-999.0,86,-99.99,,,0.00,Acu-Link.com,2013-09-10 14:18:00,
2013-09-10 07:33:00,60.3,56.1,29.86,North,0,0.0,-999.0,86,-99.99,,,0.00,Acu-Link.com,2013-09-10 14:33:00,
2013-09-10 07:49:00,60.1,57.2,29.87,South,180,0.0,-999.0,90,-99.99,,,0.00,Acu-Link.com,2013-09-10 14:49:00,
2013-09-10 08:04:00,61.7,58.4,29.87,ESE,112,3.7,-999.0,89,-99.99,,,0.00,Acu-Link.com,2013-09-10 15:04:00,
2013-09-10 08:19:00,61.9,58.0,29.87,SSE,157,2.2,-999.0,87,-99.99,,,0.00,Acu-Link.com,2013-09-10 15:19:00,
2013-09-10 08:34:00,64.4,59.1,29.87,South,180,2.2,-999.0,83,-99.99,,,0.00,Acu-Link.com,2013-09-10 15:34:00,
2013-09-10 08:49:00,67.3,60.2,29.88,SSE,157,2.7,-999.0,78,-99.99,,,0.00,Acu-Link.com,2013-09-10 15:49:00,
2013-09-10 09:05:00,71.1,61.2,29.88,SE,135,2.2,-999.0,71,-99.99,,,0.00,Acu-Link.com,2013-09-10 16:05:00,
2013-09-10 09:20:00,73.9,60.5,29.88,SW,225,0.0,-999.0,63,-99.99,,,0.00,Acu-Link.com,2013-09-10 16:20:00,
2013-09-10 09:35:00,81.1,60.7,29.88,NNE,22,2.2,-999.0,50,-99.99,,,0.00,Acu-Link.com,2013-09-10 16:35:00,
2013-09-10 09:50:00,79.7,61.6,29.89,NNW,337,0.0,-999.0,54,-99.99,,,0.00,Acu-Link.com,2013-09-10 16:50:00,
2013-09-10 10:06:00,83.3,60.9,29.88,West,270,5.8,-999.0,47,-99.99,,,0.00,Acu-Link.com,2013-09-10 17:06:00,
2013-09-10 10:21:00,84.0,61.6,29.88,NNW,337,2.7,-999.0,47,-99.99,,,0.00,Acu-Link.com,2013-09-10 17:21:00,
2013-09-10 10:37:00,85.6,61.8,29.88,WNW,292,2.7,-999.0,45,-99.99,,,0.00,Acu-Link.com,2013-09-10 17:37:00,
2013-09-10 10:52:00,86.9,61.7,29.88,East,90,0.0,-999.0,43,-99.99,,,0.00,Acu-Link.com,2013-09-10 17:52:00,
2013-09-10 11:07:00,88.3,60.9,29.87,South,180,4.7,-999.0,40,-99.99,,,0.00,Acu-Link.com,2013-09-10 18:07:00,
2013-09-10 11:22:00,91.4,61.4,29.87,NE,45,1.1,-999.0,37,-99.99,,,0.00,Acu-Link.com,2013-09-10 18:22:00,
2013-09-10 11:37:00,92.7,60.2,29.87,West,270,3.7,-999.0,34,-99.99,,,0.00,Acu-Link.com,2013-09-10 18:37:00,
2013-09-10 11:53:00,92.7,61.0,29.86,West,270,2.7,-999.0,35,-99.99,,,0.00,Acu-Link.com,2013-09-10 18:53:00,
2013-09-10 12:08:00,93.9,61.2,29.85,NNW,337,3.2,-999.0,34,-99.99,,,0.00,Acu-Link.com,2013-09-10 19:08:00,
2013-09-10 12:23:00,94.1,61.4,29.85,West,270,5.3,-999.0,34,-99.99,,,0.00,Acu-Link.com,2013-09-10 19:23:00,
2013-09-10 12:38:00,95.7,61.9,29.84,WNW,292,2.7,-999.0,33,-99.99,,,0.00,Acu-Link.com,2013-09-10 19:38:00,
2013-09-10 12:53:00,97.5,62.6,29.83,NNE,22,0.0,-999.0,32,-99.99,,,0.00,Acu-Link.com,2013-09-10 19:53:00,
2013-09-10 13:09:00,98.1,63.1,29.83,East,90,1.7,-999.0,32,-99.99,,,0.00,Acu-Link.com,2013-09-10 20:09:00,
2013-09-10 13:24:00,100.6,63.4,29.82,ENE,67,1.7,-999.0,30,-99.99,,,0.00,Acu-Link.com,2013-09-10 20:24:00,
2013-09-10 13:39:00,101.1,65.7,29.81,West,270,1.7,-999.0,32,-99.99,,,0.00,Acu-Link.com,2013-09-10 20:39:00,
2013-09-10 13:54:00,102.9,60.2,29.81,East,90,0.0,-999.0,25,-99.99,,,0.00,Acu-Link.com,2013-09-10 20:54:00,
2013-09-10 14:09:00,101.8,63.5,29.81,South,180,0.0,-999.0,29,-99.99,,,0.00,Acu-Link.com,2013-09-10 21:09:00,
2013-09-10 14:25:00,102.0,63.7,29.81,South,180,0.0,-999.0,29,-99.99,,,0.00,Acu-Link.com,2013-09-10 21:25:00,
2013-09-10 14:40:00,101.8,67.2,29.81,East,90,1.7,-999.0,33,-99.99,,,0.00,Acu-Link.com,2013-09-10 21:40:00,
2013-09-10 14:55:00,101.3,64.0,29.80,NE,45,1.1,-999.0,30,-99.99,,,0.00,Acu-Link.com,2013-09-10 21:55:00,
2013-09-10 15:10:00,102.0,62.7,29.80,NE,45,1.1,-999.0,28,-99.99,,,0.00,Acu-Link.com,2013-09-10 22:10:00,
2013-09-10 15:25:00,100.8,64.6,29.80,NE,45,1.7,-999.0,31,-99.99,,,0.00,Acu-Link.com,2013-09-10 22:25:00,
2013-09-10 15:41:00,101.7,62.4,29.80,ENE,67,0.0,-999.0,28,-99.99,,,0.00,Acu-Link.com,2013-09-10 22:41:00,
2013-09-10 15:56:00,102.7,62.2,29.79,NNE,22,0.0,-999.0,27,-99.99,,,0.00,Acu-Link.com,2013-09-10 22:56:00,
2013-09-10 16:11:00,102.4,60.9,29.79,NW,315,0.0,-999.0,26,-99.99,,,0.00,Acu-Link.com,2013-09-10 23:11:00,
2013-09-10 16:26:00,102.2,61.8,29.79,West,270,0.0,-999.0,27,-99.99,,,0.00,Acu-Link.com,2013-09-10 23:26:00,
2013-09-10 16:42:00,100.6,63.4,29.78,West,270,0.0,-999.0,30,-99.99,,,0.00,Acu-Link.com,2013-09-10 23:42:00,
2013-09-10 16:58:00,97.9,65.5,29.78,NW,315,0.0,-999.0,35,-99.99,,,0.00,Acu-Link.com,2013-09-10 23:58:00,
2013-09-10 17:13:00,95.5,64.2,29.78,ENE,67,1.1,-999.0,36,-99.99,,,0.00,Acu-Link.com,2013-09-11 00:13:00,
2013-09-10 17:29:00,92.1,64.3,29.77,NNW,337,0.0,-999.0,40,-99.99,,,0.00,Acu-Link.com,2013-09-11 00:29:00,
2013-09-10 17:44:00,87.3,64.0,29.77,NE,45,0.0,-999.0,46,-99.99,,,0.00,Acu-Link.com,2013-09-11 00:44:00,
2013-09-10 18:00:00,85.3,65.1,29.77,NNE,22,0.0,-999.0,51,-99.99,,,0.00,Acu-Link.com,2013-09-11 01:00:00,
2013-09-10 18:15:00,82.4,64.1,29.77,NNE,22,0.0,-999.0,54,-99.99,,,0.00,Acu-Link.com,2013-09-11 01:15:00,
2013-09-10 18:30:00,79.5,63.9,29.77,WSW,247,0.0,-999.0,59,-99.99,,,0.00,Acu-Link.com,2013-09-11 01:30:00,
2013-09-10 18:45:00,77.2,63.6,29.77,NNE,22,0.0,-999.0,63,-99.99,,,0.00,Acu-Link.com,2013-09-11 01:45:00,
2013-09-10 19:01:00,75.2,60.8,29.76,SW,225,0.0,-999.0,61,-99.99,,,0.00,Acu-Link.com,2013-09-11 02:01:00,
2013-09-10 19:16:00,73.2,60.3,29.76,North,0,1.1,-999.0,64,-99.99,,,0.00,Acu-Link.com,2013-09-11 02:16:00,
2013-09-10 19:31:00,71.6,59.2,29.76,NE,45,0.0,-999.0,65,-99.99,,,0.00,Acu-Link.com,2013-09-11 02:31:00,
2013-09-10 19:46:00,70.3,58.8,29.77,ESE,112,1.7,-999.0,67,-99.99,,,0.00,Acu-Link.com,2013-09-11 02:46:00,
2013-09-10 20:02:00,69.6,58.6,29.77,NNE,22,1.1,-999.0,68,-99.99,,,0.00,Acu-Link.com,2013-09-11 03:02:00,
2013-09-10 20:17:00,69.1,58.1,29.77,ENE,67,0.0,-999.0,68,-99.99,,,0.00,Acu-Link.com,2013-09-11 03:17:00,
2013-09-10 20:33:00,68.7,59.3,29.77,South,180,1.1,-999.0,72,-99.99,,,0.00,Acu-Link.com,2013-09-11 03:33:00,
2013-09-10 20:48:00,67.5,59.3,29.78,North,0,0.0,-999.0,75,-99.99,,,0.00,Acu-Link.com,2013-09-11 03:48:00,
2013-09-10 21:04:00,67.1,58.5,29.78,West,270,0.0,-999.0,74,-99.99,,,0.00,Acu-Link.com,2013-09-11 04:04:00,
2013-09-10 21:19:00,66.7,58.1,29.78,NNE,22,1.7,-999.0,74,-99.99,,,0.00,Acu-Link.com,2013-09-11 04:19:00,
2013-09-10 21:34:00,67.1,57.8,29.78,East,90,0.0,-999.0,72,-99.99,,,0.00,Acu-Link.com,2013-09-11 04:34:00,
2013-09-10 21:49:00,67.5,57.0,29.78,NNW,337,1.7,-999.0,69,-99.99,,,0.00,Acu-Link.com,2013-09-11 04:49:00,
2013-09-10 22:05:00,67.1,55.8,29.80,North,0,2.2,-999.0,67,-99.99,,,0.00,Acu-Link.com,2013-09-11 05:05:00,
2013-09-10 22:20:00,67.5,56.1,29.81,North,0,0.0,-999.0,67,-99.99,,,0.00,Acu-Link.com,2013-09-11 05:20:00,
2013-09-10 22:35:00,67.3,55.5,29.81,NE,45,3.2,-999.0,66,-99.99,,,0.00,Acu-Link.com,2013-09-11 05:35:00,
2013-09-10 22:51:00,67.1,55.8,29.81,NNE,22,0.0,-999.0,67,-99.99,,,0.00,Acu-Link.com,2013-09-11 05:51:00,
2013-09-10 23:06:00,67.5,54.9,29.81,South,180,3.2,-999.0,64,-99.99,,,0.00,Acu-Link.com,2013-09-11 06:06:00,
2013-09-10 23:22:00,66.2,55.3,29.82,SSE,157,0.0,-999.0,68,-99.99,,,0.00,Acu-Link.com,2013-09-11 06:22:00,
2013-09-10 23:37:00,66.9,53.4,29.81,SW,225,2.2,-999.0,62,-99.99,,,0.00,Acu-Link.com,2013-09-11 06:37:00,
2013-09-10 23:52:00,67.6,54.1,29.82,WSW,247,2.7,-999.0,62,-99.99,,,0.00,Acu-Link.com,2013-09-11 06:52:00,